Lapse_Rate
2.1 2.3 2.3 2.7 2.0 1.0 0.9 0.2 1.0 1.2 2.0 2.3 3.0 2.7 2.1 1.0 1.1 0.9 0.3 0.5 0.7 1.3
2.2 2.3 2.5 2.9 2.3 1.6 0.9 1.5 1.6 2.4 2.5 3.0 2.7 2.9 2.1 1.2 1.0 0.5 0.3 0.7 0.9 1.3
2.5 3.0 2.8 2.8 2.2 1.9 1.3 1.9 2.0 2.2 2.7 3.1 2.8 2.8 1.7 1.0 1.5 0.6 0.8 1.3 1.5 1.7
2.7 3.0 2.4 2.5 2.1 1.8 1.8 2.3 2.7 2.9 2.7 2.2 2.0 2.2 1.5 1.8 2.0 1.6 1.9 2.3 2.5 2.3
2.8 2.6 2.4 2.3 2.4 2.3 2.6 3.7 3.8 3.6 2.9 2.6 2.2 2.5 2.5 2.7 2.6 2.7 2.8 2.7 2.8 2.7
2.8 2.9 2.6 2.8 2.5 3.0 3.4 3.6 4.3 3.1 2.4 1.8 1.5 2.2 3.1 3.2 3.2 3.6 3.7 3.5 2.9 2.7
3.4 3.0 2.6 2.7 3.0 3.3 3.6 3.4 3.1 2.6 1.3 0.9 0.5 0.9 1.8 4.0 4.0 4.3 4.4 3.6 2.8 2.4
3.1 3.6 3.2 3.4 3.6 3.5 3.8 3.6 2.6 1.4 0.5 0.1 0.2 0.8 0.1 1.6 2.9 4.1 3.8 3.7 3.2 2.0
4.5 4.4 3.6 3.5 3.6 3.5 3.7 3.6 2.4 1.5 0.7 -0.3 0.5 -1.0 -0.3 0.7 1.9 4.0 3.7 3.4 2.7 1.2
5.2 4.5 4.1 4.1 4.2 4.0 3.5 3.4 2.4 1.0 0.1 -0.9 -1.2 -0.7 -0.1 0.2 1.7 3.0 2.8 2.4 2.8 3.2
5.4 4.9 4.9 4.8 4.4 3.3 3.2 3.5 2.0 1.3 0.5 -0.6 -0.7 -0.7 -0.4 0.2 2.1 3.2 2.8 2.2 1.6 0.4
5.5 5.1 5.0 4.9 4.0 3.8 3.9 3.9 2.8 2.1 0.8 -0.1 -1.4 -0.7 -0.2 1.6 2.9 3.7 2.4 2.0 1.0 0.5
5.4 5.1 4.8 4.5 3.9 4.0 3.7 4.3 4.4 2.7 1.5 0.3 -1.1 -0.5 -0.1 0.7 2.1 2.1 1.4 0.5 0.6 1.5
5.8 5.2 4.4 4.3 4.3 4.3 4.4 4.6 3.6 2.1 1.2 0.3 -0.3 -0.7 0.0 1.5 1.3 0.8 0.6 0.0 -0.4 0.2
Wind_Speed
10 7 6 6 7 6 5 5 11 10 11 12 15 15 13 6 7 9 8 10 7 4
7 8 8 11 10 7 6 6 11 12 8 12 13 14 12 6 8 7 6 7 6 4
9 10 10 10 10 9 6 9 9 8 9 9 12 12 10 6 8 7 5 4 6 5
10 9 9 10 10 10 8 10 6 7 6 6 6 8 6 7 7 8 7 6 6 7
10 10 10 9 8 9 9 13 10 10 7 7 5 8 7 7 7 7 6 6 7 6
10 11 10 10 8 8 10 9 11 9 8 7 6 6 6 6 7 6 6 6 6 6
10 11 11 10 10 10 9 11 10 9 9 6 6 6 6 5 6 6 5 6 6 6
9 11 11 10 10 9 10 10 11 11 9 8 6 5 4 5 4 6 6 7 9 11
13 12 12 10 10 9 10 11 12 11 10 8 5 6 7 5 4 4 6 6 6 9
14 14 12 11 11 11 10 10 11 11 10 8 5 6 6 6 4 5 6 6 6 6
15 14 12 12 11 9 8 10 11 10 10 8 5 6 5 4 4 5 8 6 7 7
15 15 14 13 11 9 9 8 10 10 10 8 5 7 7 5 5 7 8 9 11 9
15 15 14 12 11 9 9 9 9 10 9 10 7 8 9 6 4 6 5 5 7 14
15 15 14 12 10 10 10 10 9 11 8 8 8 6 11 12 5 4 4 4 3 4
Wind_Direction
131 141 142 144 129 126 123 119 110 102 94 94 103 88 90 85 91 84 73 70 65 67
127 121 125 120 120 124 123 121 114 110 100 91 107 101 98 96 93 89 82 78 76 69
129 127 123 123 126 128 130 114 119 113 105 93 102 106 98 94 88 85 84 89 81 58
133 129 121 126 129 133 127 124 121 122 114 102 96 100 93 96 92 82 76 83 77 66
135 128 131 133 136 133 129 127 126 121 115 102 97 96 92 95 96 93 83 83 88 71
140 142 138 141 137 131 128 126 122 113 105 94 80 89 103 103 109 109 102 99 99 84
150 148 143 141 139 136 132 127 124 114 99 84 72 63 53 84 109 117 105 85 92 84
144 144 142 144 147 144 137 134 124 117 105 96 78 68 66 66 70 106 89 77 101 84
152 152 151 153 153 144 139 136 129 123 119 108 110 105 85 86 77 96 93 86 85 96
158 157 157 154 147 146 144 139 132 125 119 115 120 125 102 72 92 99 100 96 75 65
160 157 156 153 149 144 143 142 135 133 125 123 117 109 79 48 134 124 101 101 95 80
161 158 157 159 154 151 144 142 138 138 135 126 112 99 74 83 122 98 104 98 91 82
160 160 160 158 158 157 149 149 140 142 138 132 123 101 81 87 102 99 114 110 91 60
161 161 157 159 159 156 153 146 127 129 137 128 126 106 86 102 99 105 111 114 79 50